Weather History for KPSC - December, 2013

Change the Weather History Date:

Saturday, December 14, 2013

  Actual Average Record
Temperature  
Mean Temperature 28 °F 33 °F  
Max Temperature 37 °F 40 °F 64 °F (2002)
Min Temperature 19 °F 26 °F 13 °F (2000)
Degree Days  
Heating Degree Days 37 32  
Month to date heating degree days 592 431  
Since 1 July heating degree days 1942 1660  
Cooling Degree Days 0 0  
Month to date cooling degree days 0 0  
Year to date cooling degree days 995 710  
Moisture  
Dew Point 24 °F    
Average Humidity 81    
Maximum Humidity 92    
Minimum Humidity 70    
Precipitation  
Precipitation 0.00 in 0.04 in 0.79 in (2003)
Month to date precipitation 0.05 0.42  
Year to date precipitation 4.80 8.04  
Snow  
Snow 0.00 in - - ()
Snow Depth 0.00 in    
Sea Level Pressure  
Sea Level Pressure 30.41 in    
Wind  
Wind Speed 3 mph (North)    
Max Wind Speed 16 mph    
Max Gust Speed 17 mph    
Visibility 7 miles    
Events      
T = Trace of Precipitation, MM = Missing Value Source: NWS Daily Summary

Daily Weather History Graph

Daily Weather History Graph

Search for Another Location

Airport or City:

Trip Planner

Search our weather history database for the weather conditions in past years. The results will help you decide how hot, cold, wet, or windy it might be!

Date:

Astronomy

Dec. 14, 2013 Rise Set
Actual Time 7:32 AM PST 4:10 PM PST
Civil Twilight 6:57 AM PST 4:45 PM PST
Nautical Twilight 6:19 AM PST 5:23 PM PST
Astronomical Twilight 5:42 AM PST 6:00 PM PST
Moon 2:41 PM PST (12/14) 4:51 AM PST (12/14)
Length of Visible Light 9h 47m
Length of Day
8h 38m
Waxing Gibbous, 94% of the Moon is Illuminated
Dec 14
Waxing Gibbous
Dec 17
Full
Dec 25
Last Quarter
Jan 1
New
Jan 7
First Quarter

Hourly Weather History & Observations

Time (PST) Temp. Windchill Dew Point Humidity Pressure Visibility Wind Dir Wind Speed Gust Speed Precip Events Conditions
12:53 AM 19.9 °F 13.4 °F 17.1 °F 89% 30.49 in 5.0 mi NNW 4.6 mph - N/A   Clear
1:38 AM 21.2 °F 14.9 °F 17.6 °F 86% 30.48 in 6.0 mi NNW 4.6 mph - N/A   Mostly Cloudy
1:53 AM 19.9 °F - 18.0 °F 92% 30.49 in 6.0 mi Calm Calm - N/A   Overcast
2:10 AM 21.2 °F 14.9 °F 19.4 °F 93% 30.47 in 6.0 mi NNE 4.6 mph - N/A   Scattered Clouds
2:53 AM 24.1 °F 16.0 °F 21.0 °F 88% 30.46 in 7.0 mi ESE 6.9 mph - N/A   Mostly Cloudy
3:53 AM 26.1 °F - 23.0 °F 88% 30.47 in 7.0 mi Calm Calm - N/A   Partly Cloudy
4:53 AM 26.1 °F - 24.1 °F 92% 30.46 in 7.0 mi Calm Calm - N/A   Clear
5:53 AM 27.0 °F - 23.0 °F 85% 30.47 in 8.0 mi Calm Calm - N/A   Clear
6:53 AM 26.1 °F - 23.0 °F 88% 30.49 in 7.0 mi Calm Calm - N/A   Partly Cloudy
7:53 AM 28.0 °F 22.8 °F 24.1 °F 85% 30.43 in 8.0 mi East 4.6 mph - N/A   Mostly Cloudy
8:53 AM 28.9 °F 23.9 °F 25.0 °F 85% 30.47 in 6.0 mi NNW 4.6 mph - N/A   Clear
9:53 AM 33.1 °F 28.7 °F 26.1 °F 75% 30.44 in 8.0 mi NNW 4.6 mph - N/A   Clear
10:53 AM 34.0 °F - 26.1 °F 73% 30.44 in 6.0 mi Calm Calm - N/A   Haze
11:53 AM 34.0 °F 29.8 °F 26.1 °F 73% 30.40 in 8.0 mi South 4.6 mph - N/A   Clear
12:53 PM 35.1 °F 31.0 °F 26.1 °F 70% 30.41 in 8.0 mi NNW 4.6 mph - N/A   Clear
1:53 PM 36.0 °F - 27.0 °F 70% 30.38 in 8.0 mi Calm Calm - N/A   Clear
2:53 PM 36.0 °F - 27.0 °F 70% 30.39 in 8.0 mi Calm Calm - N/A   Clear
3:53 PM 35.1 °F 32.2 °F 26.1 °F 70% 30.37 in 8.0 mi SSW 3.5 mph - N/A   Clear
4:53 PM 32.0 °F 28.7 °F 26.1 °F 79% 30.36 in 8.0 mi North 3.5 mph - N/A   Clear
5:53 PM 30.0 °F 25.2 °F 24.1 °F 79% 30.36 in 7.0 mi NNW 4.6 mph - N/A   Clear
6:40 PM 26.6 °F - 23.0 °F 86% 30.34 in 6.0 mi Calm Calm - N/A   Scattered Clouds
6:53 PM 27.0 °F - 23.0 °F 85% 30.36 in 5.0 mi Calm Calm - N/A   Scattered Clouds
7:53 PM 26.1 °F - 21.9 °F 84% 30.35 in 7.0 mi Calm Calm - N/A   Scattered Clouds
8:53 PM 28.0 °F 22.8 °F 25.0 °F 88% 30.34 in 6.0 mi NE 4.6 mph - N/A   Mostly Cloudy
9:53 PM 30.0 °F 24.1 °F 26.1 °F 85% 30.33 in 7.0 mi North 5.8 mph - N/A   Overcast
10:53 PM 28.9 °F 25.2 °F 26.1 °F 89% 30.34 in 7.0 mi NNW 3.5 mph - N/A   Clear
11:53 PM 28.0 °F 22.8 °F 25.0 °F 88% 30.34 in 6.0 mi South 4.6 mph - N/A   Clear